[[{"header":{"parameterUnit":"m.s-1","parameterCategory":1,"la1":30.2992,"la2":30.254,"lo1":-89.0895,"lo2":-89.0443,"dy":0.0025,"dx":0.0025,"nx":19,"ny":19,"refTime":"2026-04-23T21:00:00:Z","depth":0,"parameterNumber":2,"parameterNumberName":"U-component_of_WINDS"},"data":[0,0,0,0.0369,0.0371,0.0445,0.0445,0.0524,0.0525,0,0,0,0,0,0,0,0,0,0,0,0.0339,0.034,0.0369,0.0371,0.0445,0.0445,0.0524,0.0525,0,0,0,0,0,0,0,0,0,0,0,0.0339,0.034,0.034,0.0371,0.0445,0.0445,0.0524,0.0473,0,0,0,0,0,0,0,0,0,0,0.0404,0.0369,0.034,0.034,0.0371,0.0444,0.0445,0.0471,0.0476,0.0484,0,0.0491,0,0.0509,0.0529,0.0529,0,0,0,0.0376,0.0364,0.0392,0.034,0.0372,0.0444,0.0413,0.0474,0.048,0.0491,0.0492,0.0495,0.051,0.0529,0.053,0.0561,0.0561,0,0,0.0372,0.0348,0.0387,0.0395,0.0385,0.041,0.0415,0.0478,0.0476,0.0492,0.0497,0.0511,0.053,0.053,0.0561,0.0561,0,0,0,0.0357,0.0345,0.0371,0.0392,0.0406,0.0412,0.0418,0.0474,0.0484,0.0498,0.0512,0.053,0.0531,0.0561,0.0561,0.0532,0,0,0,0.0355,0.0336,0.0369,0.0355,0.0405,0.0441,0.0412,0.048,0.0488,0.0512,0.053,0.0532,0.0561,0.0561,0.0533,0.0521,0,0,0,0.0337,0.0334,0.0342,0.0353,0.0385,0.0441,0.0455,0.0482,0.0496,0.0529,0.0532,0.0561,0.0561,0.0534,0.0523,0.0522,0,0,0,0.0311,0.0315,0.0341,0.0351,0.0384,0.0423,0.0455,0.0485,0.051,0.0531,0.0561,0.0561,0.0534,0.0524,0.0523,0.0516,0.0512,0,0,0.0302,0.0313,0.032,0.0346,0.0374,0.0413,0.0437,0.0482,0.0507,0.0541,0.0542,0.0532,0.0523,0.0522,0.0495,0.0491,0,0,0,0.0309,0.0314,0.0327,0.035,0.0386,0.0415,0.0459,0.0476,0.0506,0.052,0.0533,0.0528,0.0529,0.0527,0.0523,0.0525,0.0559,0.0559,0.0559,0.026,0.0293,0.0307,0.0348,0.037,0.0416,0.0437,0.0467,0.0493,0.0495,0.0505,0.0485,0.0481,0.0479,0.048,0.0505,0.0505,0.0505,0.0505,0.0249,0.026,0.0295,0.0321,0.0355,0.0377,0.0421,0.0439,0.0463,0.048,0.0482,0.0496,0.0473,0.0476,0.0503,0.0503,0.0503,0.0503,0.0504,0.0219,0.023,0.0252,0.0289,0.0314,0.0355,0.0378,0.0408,0.0436,0.0438,0.0451,0.0452,0.0455,0.0442,0.0442,0.0442,0.0442,0.0442,0.0442,0.018,0.0205,0.0221,0.0259,0.0278,0.0307,0.0353,0.0372,0.0401,0.0421,0.0421,0.0445,0.0466,0.047,0.0441,0.0441,0.0441,0.0441,0.0441,0.0154,0.0165,0.0189,0.0208,0.0256,0.0278,0.0317,0.0353,0.0373,0.0382,0.0407,0.0418,0.043,0.0433,0.0436,0.0401,0.0401,0.0401,0.0401,0.0129,0.0139,0.017,0.0199,0.023,0.0267,0.0292,0.0328,0.0367,0.0381,0.0391,0.0398,0.04,0.0411,0.0415,0.0418,0.0379,0.0379,0.0379,0.0114,0.0129,0.0144,0.0184,0.0223,0.0256,0.028,0.031,0.0356,0.0378,0.0392,0.0393,0.0406,0.0408,0.0429,0.0434,0.0441,0,0]},{"header":{"parameterUnit":"m.s-1","parameterCategory":1,"la1":30.2992,"la2":30.254,"lo1":-89.0895,"lo2":-89.0443,"dy":0.0025,"dx":0.0025,"nx":19,"ny":19,"refTime":"2026-04-23T21:00:00:Z","depth":0,"parameterNumber":3,"parameterNumberName":"V-component_of_WINDS"},"data":[0,0,0,1.4516,1.4516,1.4487,1.4487,1.4453,1.4453,0,0,0,0,0,0,0,0,0,0,0,1.4527,1.4527,1.4516,1.4516,1.4487,1.4487,1.4453,1.4453,0,0,0,0,0,0,0,0,0,0,0,1.4527,1.4527,1.4527,1.4515,1.4487,1.4487,1.4453,1.4474,0,0,0,0,0,0,0,0,0,0,1.4501,1.4514,1.4527,1.4527,1.4515,1.4487,1.4487,1.4475,1.4472,1.4468,0,1.4465,0,1.4459,1.4451,1.4451,0,0,0,1.4513,1.4515,1.4506,1.4527,1.4515,1.4487,1.4499,1.4473,1.4471,1.4465,1.4465,1.4463,1.4458,1.4451,1.4451,1.4435,1.4435,0,0,1.4515,1.4523,1.4507,1.4504,1.451,1.45,1.4498,1.4472,1.4471,1.4464,1.4462,1.4458,1.4451,1.445,1.4435,1.4435,0,0,0,1.4521,1.4524,1.4515,1.4506,1.45,1.4499,1.4497,1.4473,1.4469,1.4462,1.4457,1.445,1.445,1.4435,1.4435,1.4445,0,0,0,1.4522,1.4528,1.4516,1.452,1.4501,1.4486,1.4499,1.4471,1.4468,1.4457,1.445,1.445,1.4434,1.4435,1.4445,1.4448,0,0,0,1.4528,1.4528,1.4525,1.4521,1.4509,1.4487,1.4481,1.447,1.4465,1.4451,1.445,1.4434,1.4435,1.4444,1.4448,1.4447,0,0,0,1.4537,1.4534,1.4526,1.4521,1.451,1.4494,1.4481,1.4469,1.4458,1.445,1.4434,1.4435,1.4444,1.4447,1.4447,1.4448,1.445,0,0,1.4538,1.4534,1.4531,1.4523,1.4511,1.4497,1.4487,1.4468,1.4458,1.4443,1.4442,1.4445,1.4448,1.4447,1.4455,1.4456,0,0,0,1.4534,1.4531,1.4526,1.4517,1.4504,1.4493,1.4476,1.447,1.4456,1.4453,1.4444,1.4446,1.4445,1.4445,1.4446,1.4445,1.4435,1.4435,1.4435,1.4546,1.4535,1.4529,1.4515,1.4507,1.449,1.4482,1.447,1.446,1.4459,1.4454,1.446,1.4461,1.4461,1.4461,1.4454,1.4454,1.4454,1.4454,1.4546,1.4541,1.4531,1.4521,1.4509,1.45,1.4484,1.4478,1.4468,1.4462,1.4461,1.4456,1.4463,1.4462,1.4454,1.4454,1.4454,1.4454,1.4454,1.4553,1.4549,1.4542,1.4529,1.452,1.4506,1.4498,1.4487,1.4477,1.4476,1.447,1.447,1.4469,1.4474,1.4474,1.4474,1.4474,1.4474,1.4474,1.4562,1.4554,1.4549,1.4537,1.453,1.4521,1.4505,1.4498,1.4487,1.448,1.448,1.4471,1.4466,1.4465,1.4474,1.4474,1.4474,1.4474,1.4474,1.4566,1.4564,1.4556,1.455,1.4535,1.4527,1.4515,1.4502,1.4495,1.4491,1.4483,1.4481,1.4476,1.4475,1.4474,1.4485,1.4485,1.4485,1.4485,1.4572,1.4569,1.4559,1.4551,1.4541,1.4529,1.452,1.4508,1.4495,1.449,1.4487,1.4485,1.4485,1.448,1.4479,1.4478,1.449,1.449,1.449,1.4574,1.457,1.4565,1.4554,1.4542,1.4531,1.4523,1.4513,1.4497,1.449,1.4486,1.4486,1.4482,1.4482,1.4474,1.4472,1.447,0,0]}]]